Regional Weather Roundup
Issued by NWS State College, PA

Home | Current Version | Previous Version | Text Only | Print | Product List | Glossary On
Versions: 1 2 3 4 5 6 7 8 9 10 11 12 13 14 15 16 17 18 19 20 21 22 23 24 25 26 27 28 29 30 31 32 33 34 35 36 37 38 39 40 41 42 43 44 45 46 47 48 49 50
000
ASUS41 KCTP 050103
RWRCTP

REGIONAL WEATHER ROUNDUP
NATIONAL WEATHER SERVICE STATE COLLEGE PA
900 PM EDT SAT JUL 04 2015

Note: "fair" indicates few or no clouds below 12,000 feet with no
significant weather and/or obstructions to visibility.

* = STATION THAT DOES NOT REPORT PRECIPITATION /E.G. RAIN...SNOW...ETC/
    THUNDER OR FOG.

PAZ002>004-007>009-013>016-020>023-029>032-050200-
WESTERN PENNSYLVANIA

CITY           SKY/WX    TMP DP  RH WIND       PRES   REMARKS
ERIE           CLEAR     67  56  67 SW3       30.01S
MEADVILLE      CLEAR     64  50  60 CALM      30.04R
FRANKLIN*      CLEAR     64  48  55 CALM      30.05R
NEW CASTLE     FAIR      69  54  58 N8        30.03R
BEAVER COUNTY  NOT AVBL
BUTLER*        CLEAR     68  54  60 NE3       30.03S
PITTSBURGH INT PTCLDY    74  57  55 N5        30.01R
PITTSBURGH     CLEAR     72  51  47 NW5       30.00S
INDIANA*       CLEAR     70  61  73 CALM      30.05R
LATROBE        CLEAR     72  59  64 CALM      30.02R
WASHINGTON CO* NOT AVBL
$$

PAZ004>006-010>012-017>019-024>028-033>037-041-042-045-046-049>053-050200-
CENTRAL PENNSYLVANIA

CITY           SKY/WX    TMP DP  RH WIND       PRES   REMARKS
BRADFORD       CLEAR     62  52  69 CALM      30.04R
DUBOIS         CLEAR     68  55  63 NW5       30.02R
CLEARFIELD     CLOUDY    69  67  93 N5        30.02R
JOHNSTOWN      CLEAR     68  58  70 NW6       30.05R
ALTOONA        MOCLDY    67  64  90 E3        30.03R
STATE COLLEGE  PTCLDY    64  63  94 E3        30.02R
WILLIAMSPORT   CLOUDY    67  62  84 CALM      29.99R
SELINSGROVE    CLOUDY    67  65  93 CALM      30.01R FOG
FT INDIANTOWN  CLOUDY    66  64  91 E2        30.00R
CAPITAL CITY   CLOUDY    69  62  78 SE3       30.00R
HARRISBURG     CLOUDY    69  65  86 CALM      30.00R
YORK           CLOUDY    68  66  93 N3        30.01R FOG
$$

PAZ038>040-043-044-047-048-054-055-060>062-067>071-050200-
EASTERN PENNSYLVANIA

CITY           SKY/WX    TMP DP  RH WIND       PRES   REMARKS
SCRANTON       CLOUDY    66  63  90 CALM      30.01R FOG
MOUNT POCONO   PTCLDY    60  57  89 CALM      30.04R
ALLENTOWN      CLOUDY    69  62  78 CALM      29.99S
QUAKERTOWN*    MOCLDY    66  63  88 CALM      30.01S
READING        CLOUDY    68  65  90 N5        29.99R
LANCASTER      CLOUDY    66  64  93 CALM      30.00R
COATESVILLE    MOCLDY    66  66 100 N5        30.01R
POTTSTOWN      CLOUDY    66  65  96 CALM      30.01S
BLUE BELL      CLOUDY    68  64  88 CALM      29.99S
DOYLESTOWN     CLOUDY    67  57  70 S5        29.99S
WILLOW GROVE   NOT AVBL
NORTH PHILA    CLOUDY    69  55  60 NE8       30.01R
PHILADELPHIA   CLOUDY    71  61  70 E8        29.99R
$$



USA.gov is the U.S. government's official web portal to all federal, state and local government web resources and services.